Regional Weather Roundup
Issued by NWS

Home | Current Version | Previous Version | Text Only | Print | Product List | Glossary Off
Versions: 1 2 3 4 5 6 7 8 9 10 11 12 13 14 15 16 17 18 19 20 21 22 23 24 25 26 27 28 29 30 31 32 33 34 35 36 37 38 39 40 41 42 43 44 45 46 47 48 49 50

000
ASUS45 KABQ 120401
RWRNM
NEW MEXICO REGIONAL WEATHER ROUNDUP
NATIONAL WEATHER SERVICE ALBUQUERQUE NM
900 PM MST THU FEB 11 2016

NOTE: "FAIR" MEANS FEW OR NO CLOUDS BELOW 12,000 FEET AGL WITH NO
       SIGNIFICANT WEATHER OR OBSTRUCTIONS TO VISION.

      THIS PRODUCT IS RELEASED AS TWO VERSIONS.  ONE VERSION NEAR
      THE TOP OF THE HOUR CONTAINING PRELIMINARY DATA FROM ALBUQUERQUE
      AND OTHER STATIONS.  A FINAL VERSION WITH ADDITIONAL DATA IS
      ISSUED ABOUT 10 MINUTES AFTER THE HOUR.

NMZ501-503-504-510>518-120500-
NORTHWEST PLATEAU/NORTHCENTRAL MOUNTAINS

CITY           SKY/WX    TMP DP  RH WIND       PRES   REMARKS
FARMINGTON     CLOUDY    33  25  72 CALM      30.35R
SANTA FE       CLOUDY    42  17  36 NW3       30.32S
TAOS           CLOUDY    28  19  69 CALM      30.37R

$$
NMZ402-403-502-505>509-120500-
WESTCENTRAL MOUNTAINS/SOUTHWEST MOUNTAINS

CITY           SKY/WX    TMP DP  RH WIND       PRES   REMARKS
GALLUP         CLEAR     33  19  56 CALM      30.40R
GRANTS         CLEAR     28  10  45 NW6       30.40S WCI  22
SILVER CITY      N/A     48  12  23 N10       30.32R

$$
NMZ407-409-411-412-120500-
SOUTHERN DESERTS

CITY           SKY/WX    TMP DP  RH WIND       PRES   REMARKS
DEMING         CLEAR     49  15  25 W7        30.26S
HOLLOMAN AFB   CLOUDY    47   8  20 N5        30.23S
ALAMOGORDO     CLOUDY    48   7  18 NW5       30.25R
T OR C         CLEAR     50  11  20 NW9       30.27R

$$
NMZ519>523-120500-
CENTRAL VALLEYS/CENTRAL HIGHLANDS

CITY           SKY/WX    TMP DP  RH WIND       PRES   REMARKS
ALBUQUERQUE    CLOUDY    53  17  24 N9        30.32S
DOUBLE EAGLE   CLEAR     37  14  38 VRB3      30.34R
MORIARTY ARPT  FAIR      40  12  31 CALM      30.33R
CLINES CORNERS CLOUDY    36  18  48 NW15      30.31R WCI  27
BELEN          FAIR      42  11  27 N9        30.32R
SOCORRO        NOT AVBL

$$
NMZ524>526-539-540-120500-
SOUTHCENTRAL MOUNTAINS

CITY           SKY/WX    TMP DP  RH WIND       PRES   REMARKS
RUIDOSO          N/A     48   0  13 NW6       30.34F

$$
NMZ527>531-120500-
NORTHEAST HIGHLANDS/NORTHEAST PLAINS

CITY           SKY/WX    TMP DP  RH WIND       PRES   REMARKS
LAS VEGAS      CLOUDY    42  10  27 NW12      30.29R
RATON          CLOUDY    34  16  47 NE9       30.25R WCI  27
CLAYTON        CLOUDY    48  15  26 NW13      30.20R

$$
NMZ532>537-120500-
EASTCENTRAL PLAINS

CITY           SKY/WX    TMP DP  RH WIND       PRES   REMARKS
TUCUMCARI      CLOUDY    42  15  33 S6        30.16S
CANNON AFB     CLEAR     47  19  32 S3        30.20R
CLOVIS AIRPORT CLOUDY    43  18  36 S7        30.21S

$$
NMZ028-029-538-120500-
SOUTHEAST PLAINS

CITY           SKY/WX    TMP DP  RH WIND       PRES   REMARKS
ROSWELL        CLOUDY    48  20  32 W9        30.19R
ARTESIA        CLOUDY    46  23  39 W12       30.20R
CARLSBAD       CLEAR     47  24  40 SW10      30.18S
HOBBS          CLEAR     41  23  48 CALM      30.22R


$$



USA.gov is the U.S. government's official web portal to all federal, state and local government web resources and services.